AstroBioCubeSat
1 53107U 22080C   22257.45252629 -.00000003  00000-0  00000-0 0  9995
2 53107  70.1514  55.5630 0013349 235.2654 124.6873  6.42111459  3947
CELESTA
1 53111U 22080G   22255.16019017 -.00000003  00000-0  00000 0 0  9997
2 53111  70.1086  56.1818 0009300 227.1361 132.8517  6.42544045  3765
RS4S
1 53306U 98067TR  22258.44461198  .00056701  00000-0  85734-3 0  9992
2 53306  51.6401 248.6911 0000806 171.8944 188.2060 15.54139373  8672
RS3S
1 53308U 98067TT  22258.50856016  .00053846  00000-0  81609-3 0  9992
2 53308  51.6401 248.3680 0001082 154.5094 205.5950 15.54096323  8741
RS1S
1 53309U 98067TU  22258.50645060  .00055269  00000-0  83360-3 0  9995
2 53309  51.6397 248.3522 0000683 209.7555 150.3397 15.54218833  8690
RS5S
1 53310U 98067TV  22258.50824361  .00055852  00000-0  84610-3 0  9997
2 53310  51.6401 248.3666 0000506 198.3377 161.7595 15.54093413  8721
RS6S
1 53311U 98067TW  22258.50248489  .00055707  00000-0  83463-3 0  9993
2 53311  51.6395 248.3253 0001444 138.5143 221.5958 15.54397838  8743
RS9S
1 53312U 98067TX  22258.50461486  .00054016  00000-0  81427-3 0  9998
2 53312  51.6401 248.3411 0000754 227.8829 132.2098 15.54243248  8685
RS12S
1 53313U 98067TY  22258.50312341  .00055859  00000-0  84013-3 0  9994
2 53313  51.6400 248.3316 0000268 236.3856 123.7109 15.54291672  8732
